EHI
21 25 32 36 35 34 34 33 31 28 26 24 21 17 12 7 5 4 3 3 4 4 4 3 3 3 3 3 3 3 1 0 0 0 0 0 0 0 0 0 0 0 0
23 26 32 36 35 33 32 31 29 26 23 20 17 14 11 8 6 5 4 4 4 4 3 2 2 3 3 3 3 3 2 1 0 0 0 0 0 0 0 0 0 0 0
23 27 32 34 33 31 29 28 26 22 17 14 12 12 11 9 6 6 4 3 4 4 2 1 1 1 2 2 3 3 3 2 0 0 0 0 0 0 0 0 0 0 0
22 26 29 29 28 28 27 25 22 18 13 9 9 10 10 6 4 4 4 3 3 3 2 1 0 0 1 1 1 2 2 1 0 0 0 0 0 0 0 0 0 0 0
22 26 27 26 25 25 25 22 18 14 10 7 7 7 7 4 4 5 4 3 2 2 2 1 0 0 0 0 0 1 1 0 0 0 0 0 0 0 0 0 0 0 0
22 25 28 28 27 26 24 19 16 12 9 7 6 6 6 5 5 6 5 3 1 1 1 0 0 0 0 0 0 0 0 0 0 0 0 0 0 0 0 0 0 0 0
19 22 25 28 28 26 21 18 16 13 10 7 7 6 6 6 6 6 5 3 1 0 0 0 0 0 0 0 0 0 0 0 0 0 0 0 0 0 0 0 0 0 0
16 19 21 22 23 21 17 16 16 14 11 9 7 7 6 6 6 5 4 3 1 0 0 0 0 0 1 1 0 0 0 0 0 0 0 0 0 0 0 0 0 0 0
14 16 17 17 16 15 13 13 13 12 11 10 8 7 7 7 7 6 4 3 1 1 1 0 1 1 2 2 1 1 0 0 0 0 0 0 1 1 1 0 0 0 0
13 14 14 14 11 9 9 11 12 11 11 10 8 8 8 8 8 8 6 3 2 2 2 2 2 3 3 3 3 3 2 1 1 1 1 1 2 2 1 0 0 0 0
12 12 13 11 8 5 6 9 11 11 11 10 8 7 8 8 8 8 6 4 3 4 4 3 3 4 4 3 3 4 4 3 2 2 2 1 1 1 0 0 0 0 0
10 11 11 9 6 4 6 9 10 10 10 9 7 5 6 7 7 7 6 4 4 4 4 4 4 4 4 3 3 4 4 3 2 2 2 1 0 0 0 0 0 0 0
8 9 8 7 4 3 5 7 7 7 7 7 6 5 5 6 6 6 6 5 5 4 4 4 4 4 3 3 2 3 3 2 1 1 1 0 0 0 0 0 0 0 0
7 6 5 4 2 2 3 4 4 5 6 6 6 6 6 6 6 6 6 6 6 4 4 4 3 3 3 3 3 3 3 1 1 0 0 0 0 0 0 0 0 1 1
7 6 4 2 0 0 1 1 1 2 4 5 6 6 6 6 6 6 6 6 6 5 5 5 4 3 3 3 3 3 3 3 2 1 0 0 0 0 0 0 0 1 2
7 6 5 2 0 0 0 0 0 1 2 3 4 5 6 6 6 5 5 5 6 6 6 6 5 4 3 2 1 1 2 2 2 1 0 0 0 0 0 0 0 1 1
6 6 4 1 0 0 0 0 0 0 1 1 3 4 4 4 4 4 4 5 6 6 6 6 6 3 1 1 0 0 1 1 1 0 0 0 0 0 0 0 0 0 0
3 4 2 0 0 0 1 1 0 1 1 1 3 3 3 4 5 4 4 5 6 6 6 6 5 3 1 0 0 0 0 0 0 0 0 0 0 0 0 0 0 0 0
2 2 1 0 0 1 2 1 1 2 2 3 3 3 3 4 5 5 5 6 6 6 6 5 4 3 2 1 0 0 0 0 0 0 0 0 0 0 0 0 0 0 0
3 1 0 0 0 1 2 2 1 2 2 3 3 3 3 3 4 5 6 6 6 6 5 4 3 3 2 1 0 0 0 0 0 0 0 0 0 0 0 0 0 0 0
2 1 0 0 0 1 2 2 1 1 1 1 3 3 3 3 3 4 5 6 6 5 4 3 3 3 2 1 0 0 0 0 0 0 0 0 0 0 0 0 0 0 0
1 0 0 0 0 0 1 1 1 1 1 1 3 3 3 3 3 3 4 6 6 4 3 3 3 3 2 1 0 0 0 0 0 0 0 0 0 0 0 0 0 0 0
1 0 0 0 0 0 0 0 1 1 2 2 2 2 2 2 2 2 3 5 5 4 3 3 3 3 2 1 0 0 0 0 0 0 0 0 0 0 0 0 0 0 0
2 1 0 0 0 0 0 0 1 2 2 1 1 1 1 1 1 1 1 2 4 4 3 3 3 3 3 1 0 0 0 0 0 0 0 0 0 0 0 0 0 0 0
3 2 1 0 0 0 0 0 1 2 1 0 0 0 0 0 0 0 0 0 1 2 3 3 3 3 3 2 0 0 0 0 0 0 0 0 0 0 0 0 0 0 0
3 3 2 1 0 0 0 0 1 2 1 0 0 0 0 0 0 0 0 0 0 1 2 3 3 3 3 1 0 0 0 0 0 0 0 0 0 0 0 0 0 0 0
Wind_Speed
5 5 7 7 6 6 7 6 5 5 5 3 3 2 2 2 2 2 3 3 4 4 4 3 3 3 3 3 3 3 3 2 1 2 2 2 2 0 0 1 1 2 3
5 5 6 6 6 6 6 6 6 5 5 4 3 2 2 2 2 2 2 2 3 4 4 4 3 3 3 3 3 3 2 1 1 2 2 2 3 2 1 0 1 1 1
8 7 7 6 6 6 6 5 5 4 4 4 3 3 2 2 2 1 1 1 2 3 3 4 3 3 3 3 3 3 4 2 1 1 3 3 2 1 2 1 1 1 1
7 7 7 7 6 6 5 5 4 4 4 4 5 5 4 3 2 2 2 2 2 3 3 3 3 3 3 3 3 3 3 4 2 0 1 2 3 2 1 2 2 1 1
6 7 7 7 6 6 5 4 4 4 4 5 5 5 4 3 2 2 3 2 1 2 3 4 4 3 2 3 3 3 3 2 2 1 1 1 1 2 2 1 2 2 1
5 5 5 5 5 5 5 5 5 4 3 4 5 5 5 5 4 3 3 2 1 1 2 3 3 3 2 3 3 3 3 2 2 2 2 2 2 2 2 2 1 2 2
5 6 6 6 5 5 5 6 6 4 4 4 4 5 5 5 5 4 4 3 2 1 1 2 3 3 3 3 3 3 3 3 3 2 1 2 2 2 2 2 1 1 2
4 5 6 6 5 6 5 6 6 5 4 4 4 4 5 4 3 4 3 3 2 2 2 2 3 3 3 3 3 2 2 2 2 2 2 1 1 2 2 2 2 0 1
5 5 5 5 5 6 5 5 5 5 4 4 4 3 4 4 4 4 3 2 2 2 2 2 2 2 3 3 3 2 2 2 2 2 1 1 1 1 1 2 3 3 1
6 5 4 4 4 4 4 4 4 4 4 3 3 3 4 4 4 4 4 3 2 2 3 2 2 2 2 3 3 2 2 2 1 1 1 1 1 1 1 1 1 2 3
6 5 4 4 4 4 5 4 4 4 4 4 3 4 3 3 4 3 3 3 3 3 3 3 3 3 3 2 3 2 2 2 1 1 1 1 1 1 1 1 1 1 2
5 5 4 4 4 5 4 4 4 4 4 3 3 4 4 4 4 3 3 3 3 2 3 3 3 3 2 2 3 2 2 2 2 2 1 1 1 1 1 1 1 1 2
6 5 4 3 3 4 4 4 4 3 4 4 4 3 3 3 3 3 3 3 3 3 3 3 3 3 2 2 2 2 2 2 2 2 2 2 1 1 1 1 1 1 1
6 5 4 3 2 3 4 4 4 3 4 4 4 3 3 3 3 3 2 3 3 3 3 3 3 3 2 2 2 2 1 1 1 1 2 2 2 2 2 1 1 1 1
4 5 5 3 2 2 3 3 3 3 4 4 4 3 3 3 3 3 3 3 3 3 3 3 3 2 2 1 2 1 1 1 0 0 0 1 2 2 2 2 2 2 1
4 5 5 4 4 3 3 3 3 3 4 5 4 3 2 3 3 3 3 3 3 2 3 3 3 2 1 1 2 2 1 1 1 0 1 0 1 1 2 2 2 3 3
5 5 5 4 4 3 3 4 3 3 4 4 3 3 3 3 3 4 4 3 3 3 2 3 3 2 2 2 3 3 2 1 1 1 0 1 1 1 0 0 0 1 2
5 5 3 3 2 2 2 3 3 3 3 3 3 3 3 3 3 3 3 3 3 3 3 3 3 2 2 2 3 2 2 1 1 1 1 1 1 1 1 1 0 1 2
5 5 4 4 3 3 3 3 3 3 3 3 2 2 3 3 2 3 4 3 3 3 2 3 3 3 2 3 2 2 1 1 1 1 1 1 1 1 0 1 1 2 2
4 4 3 4 3 3 3 4 3 3 2 2 2 2 3 3 3 3 3 3 3 3 3 2 2 3 3 3 3 3 2 1 0 1 1 1 1 1 0 1 2 2 3
4 4 4 4 3 3 4 4 3 2 2 2 1 1 2 3 3 2 2 3 3 3 2 2 2 2 3 4 4 4 2 2 1 1 1 1 2 2 2 2 3 4 3
4 4 3 2 2 3 4 3 2 2 1 1 2 2 2 2 2 2 2 2 3 3 2 2 1 1 2 3 5 5 4 3 2 2 2 2 3 3 3 2 3 3 1
3 3 3 2 2 3 4 4 2 2 2 2 1 1 1 0 1 2 2 2 3 3 2 2 2 2 1 2 4 5 5 4 2 2 3 4 4 3 3 3 3 2 0
3 2 3 2 1 2 2 3 2 2 3 2 1 0 0 1 0 1 2 2 3 3 3 3 3 2 2 2 2 2 2 2 2 1 2 3 3 2 2 2 2 1 1
2 3 3 2 2 2 2 2 2 3 2 1 1 0 0 0 0 0 1 2 3 5 5 5 4 4 4 5 6 4 3 3 3 1 0 1 1 1 2 1 1 1 1
2 3 2 2 2 2 2 2 2 3 3 1 0 0 0 0 0 0 1 2 2 4 6 6 5 4 5 5 5 5 5 4 4 3 1 1 2 2 2 2 2 1 2
Wind_Direction
148 134 138 137 127 127 131 136 134 133 128 126 128 137 160 158 148 163 163 158 156 148 139 135 132 132 138 149 142 122 111 101 100 86 50 11 11 56 193 169 164 176 189
130 141 141 136 136 138 141 139 143 145 144 145 145 160 146 154 156 155 146 150 146 145 145 139 142 142 136 136 136 123 113 100 95 116 103 36 358 350 346 187 179 187 183
158 161 154 151 147 148 146 142 146 147 147 139 129 116 85 78 82 101 128 139 137 135 139 144 145 146 145 151 149 137 133 139 90 114 132 135 204 301 331 304 257 228 202
160 161 156 157 159 158 144 139 151 147 143 139 141 143 140 140 159 149 144 126 116 124 136 134 135 139 142 147 154 139 134 137 149 119 119 154 156 152 313 327 321 283 219
162 162 162 162 157 153 148 149 151 150 148 147 148 144 133 136 124 122 123 119 110 118 129 130 125 128 136 143 138 133 131 136 152 165 145 110 95 130 153 257 315 330 290
148 146 141 141 140 140 147 146 149 149 150 147 142 143 143 138 131 133 139 136 123 117 125 130 128 136 141 142 143 140 139 143 143 143 145 149 151 175 162 191 248 281 289
125 134 135 137 136 139 155 156 153 155 154 143 143 147 150 146 149 154 151 147 138 133 160 148 139 143 147 145 139 137 145 151 147 153 161 167 177 168 156 154 208 259 294
117 133 142 141 148 152 155 156 157 156 155 145 144 150 150 143 144 147 148 153 158 166 159 147 141 143 145 143 136 132 150 145 148 149 160 168 184 170 165 162 157 148 320
137 140 140 140 149 154 153 152 146 138 137 135 127 123 129 129 130 131 128 134 141 142 131 137 141 149 150 148 140 135 141 133 143 163 165 168 190 180 168 165 162 155 183
142 136 126 124 139 145 133 126 124 128 122 129 141 131 123 127 129 124 123 125 122 114 118 124 134 133 135 140 135 134 144 137 155 173 149 163 200 186 172 177 177 167 170
140 132 128 128 130 129 127 128 125 123 128 135 136 129 119 119 118 119 126 132 128 125 125 129 128 126 123 128 130 139 146 151 177 197 178 205 192 167 205 186 180 184 165
133 123 116 116 124 127 133 140 137 135 138 137 128 124 117 118 121 125 131 132 133 135 135 131 124 120 114 117 136 160 162 162 173 192 172 213 189 173 194 179 190 195 182
124 114 109 123 132 131 135 140 139 141 138 132 126 118 122 128 139 145 142 137 134 128 121 120 124 126 123 118 117 129 137 163 180 178 174 195 169 187 196 181 188 202 182
128 129 125 122 124 127 134 133 133 137 140 131 129 133 142 146 150 147 141 141 139 137 135 132 140 142 135 131 131 125 120 135 178 185 181 190 185 190 189 185 195 170 116
136 142 142 141 133 136 147 144 146 148 143 133 133 151 163 153 143 146 150 144 145 151 147 136 139 133 131 154 149 147 138 138 131 43 176 190 160 170 178 172 187 162 156
158 156 152 145 149 161 165 156 156 158 145 142 152 159 151 152 157 161 153 143 145 147 137 143 145 137 152 142 131 135 133 134 128 98 337 332 107 128 135 153 168 171 178
145 140 146 152 163 167 162 164 170 157 147 152 159 162 158 165 178 170 156 162 161 142 139 155 152 157 187 153 118 115 134 144 156 175 247 343 18 32 192 216 205 203 213
139 131 130 143 157 166 150 152 149 140 145 156 165 162 162 179 186 170 170 177 169 161 166 178 177 167 190 158 131 117 118 129 194 203 189 193 277 304 183 166 250 283 273
151 150 156 151 140 141 143 138 141 143 140 154 175 178 173 179 183 187 187 183 169 172 179 180 178 177 203 189 168 141 122 99 307 281 194 175 202 286 228 146 229 286 293
128 124 122 117 126 142 132 125 131 124 142 172 179 185 182 183 194 205 195 181 174 182 180 187 190 186 195 195 178 154 140 140 254 300 276 242 215 246 98 165 190 241 271
126 127 123 123 142 145 126 124 129 152 197 194 178 177 188 193 193 194 190 172 171 168 174 188 205 195 198 192 187 175 163 183 201 241 270 274 257 243 236 209 209 227 242
125 127 125 134 153 146 135 131 155 193 182 165 165 174 184 198 182 177 189 174 169 171 189 193 231 245 218 196 198 194 195 187 183 224 243 256 272 271 265 249 246 255 257
140 140 142 139 152 156 148 152 192 175 143 123 134 186 194 214 181 177 184 180 178 182 198 198 216 244 248 222 209 201 206 209 200 229 247 274 281 286 281 269 272 276 213
137 137 136 137 168 170 156 167 174 146 126 123 102 7 326 317 321 199 193 188 190 190 195 203 214 227 231 224 215 211 214 218 221 251 279 292 285 279 272 283 290 243 211
138 138 144 153 178 164 154 158 146 132 119 122 120 347 357 23 349 306 222 206 209 197 194 204 202 198 220 230 208 191 204 207 205 176 19 358 347 327 309 300 284 267 260
137 137 135 143 161 152 150 149 139 139 136 138 191 233 72 159 191 157 344 340 260 234 217 209 199 213 222 214 206 204 202 194 171 145 175 232 245 246 250 256 268 267 251